This is the latest recevied weather packets stored in our database for station/object ED1ZAI-13. If no packets are shown the sender has not sent any weather packets the latest 10 day(s).
| Time | Temp. | Humidity | Pressure | Rain* | Wind** | Luminosity | Snow |
|---|---|---|---|---|---|---|---|
| 1777455406 | 12.78° C | 73% | 1009.1 hPa | 0 mm | - | - | - |
| 1777454805 | 12.78° C | 75% | 1009 hPa | 0 mm | - | - | - |
| 1777454205 | 12.78° C | 77% | 1009 hPa | 0 mm | - | - | - |
| 1777453605 | 12.22° C | 78% | 1008.9 hPa | 0 mm | - | - | - |
| 1777453005 | 12.22° C | 80% | 1009 hPa | 0 mm | - | - | - |
| 1777452404 | 12.22° C | 80% | 1009 hPa | 0 mm | - | - | - |
| 1777451804 | 12.22° C | 79% | 1008.9 hPa | 0 mm | - | - | - |
| 1777451206 | 11.67° C | 81% | 1008.9 hPa | 0 mm | - | - | - |
| 1777450606 | 11.67° C | 81% | 1008.9 hPa | 0 mm | - | - | - |
| 1777450005 | 12.22° C | 81% | 1008.9 hPa | 0 mm | - | - | - |
| 1777449405 | 12.22° C | 81% | 1008.9 hPa | 0 mm | - | - | - |
| 1777448805 | 11.11° C | 82% | 1008.9 hPa | 0 mm | - | - | - |
| 1777448205 | 11.11° C | 84% | 1008.9 hPa | 0 mm | - | - | - |
| 1777447604 | 11.11° C | 84% | 1009 hPa | 0 mm | - | - | - |
| 1777447004 | 11.11° C | 85% | 1008.9 hPa | 0 mm | - | - | - |
| 1777446406 | 11.11° C | 86% | 1008.9 hPa | 0 mm | - | - | - |
| 1777445805 | 10.56° C | 86% | 1009.1 hPa | 0 mm | - | - | - |
| 1777445205 | 10.56° C | 86% | 1008.9 hPa | 0 mm | - | - | - |
| 1777444605 | 10.56° C | 86% | 1008.9 hPa | 0 mm | - | - | - |
| 1777444005 | 11.11° C | 86% | 1008.6 hPa | 0 mm | - | - | - |
| 1777443404 | 11.11° C | 87% | 1008.5 hPa | 0 mm | - | - | - |
| 1777442806 | 11.11° C | 86% | 1008.3 hPa | 0 mm | - | - | - |
| 1777442204 | 11.11° C | 86% | 1008.3 hPa | 0 mm | - | - | - |
| 1777441603 | 11.11° C | 86% | 1008.3 hPa | 0 mm | - | - | - |
| 1777441005 | 11.11° C | 86% | 1008.3 hPa | 0 mm | - | - | - |
* Rain latest hour (hover to see other rain measurements)
** Current wind speed in m/s (hover to see current wind gust speed)